GW3313 Weather Reports


time (UTC)temp
C
wind
direction
speed
KPH
gust
KPH
rain 1hr
cm
rain 24hr
cm
rain mn
cm
humidity
%
barometer
mb
20260510022016 26 0.0 0.0 0.00 0.30 0.30 78 1009.1
20260510021017 26 0.0 1.6 0.00 0.30 0.30 77 1008.9
20260510020016 26 0.0 0.0 0.00 0.30 0.30 76 1008.8
20260510015016 26 0.0 4.8 0.00 0.30 0.30 76 1008.5
20260510014016 26 0.0 1.6 0.00 0.30 0.30 75 1008.5
20260510013016 27 0.0 1.6 0.00 0.30 0.30 74 1008.4
20260510012056 27 0.0 6.4 0.00 0.30 0.30 73 1008.4
20260510011642 27 0.0 0.0 0.00 0.30 0.30 71 1008.3
20260509212536 25 0.0 3.2 0.00 0.30 0.30 62 1007.6
20260509211516 24 180 3.2 19.3 0.13 0.30 0.30 68 1008.0
20260509210627 22 180 3.2 14.5 0.13 0.30 0.30 70 1008.1
20260509210016 22 180 3.2 17.7 0.13 0.30 0.30 72 1008.3
20260509205016 22 180 1.6 8.0 0.13 0.30 0.30 72 1008.3
20260509204016 22 113 1.6 12.9 0.13 0.30 0.30 79 1008.5
20260509203016 23 90 4.8 27.4 0.13 0.30 0.30 70 1008.6
20260509202016 30 0 4.8 19.3 0.05 0.23 0.23 62 1009.3
20260509201016 32 0 1.6 6.4 0.00 0.18 0.18 54 1008.8
20260509200016 32 270 1.6 9.7 0.00 0.18 0.18 52 1008.7
20260509195016 32 0.0 0.0 0.00 0.18 0.18 52 1008.6
20260509194015 32 0.0 0.0 0.00 0.18 0.18 53 1008.7
20260509193015 32 158 1.6 8.0 0.00 0.18 0.18 53 1009.0
20260509192016 32 225 1.6 6.4 0.00 0.18 0.18 56 1009.3
20260509191016 31 270 1.6 6.4 0.00 0.18 0.18 57 1009.3
20260509190016 32 0.0 8.0 0.00 0.18 0.18 58 1009.3
20260509185015 31 248 1.6 9.7 0.00 0.18 0.18 62 1009.3
20260509184015 31 0.0 6.4 0.00 0.18 0.18 62 1009.6
20260509183016 31 0.0 3.2 0.00 0.18 0.18 65 1009.9
20260509182015 30 293 1.6 9.7 0.00 0.18 0.18 63 1010.2
20260509181016 30 180 3.2 12.9 0.00 0.18 0.18 66 1010.0
20260509180016 30 158 1.6 9.7 0.00 0.18 0.18 66 1010.1
20260509175015 30 0.0 8.0 0.00 0.18 0.18 69 1010.4
20260509174015 29 0.0 6.4 0.00 0.18 0.18 71 1010.7
20260509173015 28 0.0 6.4 0.00 0.18 0.18 72 1010.7
20260509172016 28 180 1.6 8.0 0.00 0.18 0.18 77 1010.8
20260509171016 28 158 1.6 8.0 0.00 0.18 0.18 75 1010.6
20260509170015 27 0.0 6.4 0.00 0.18 0.18 81 1010.8
20260509165016 27 0.0 4.8 0.00 0.18 0.18 80 1011.0
20260509164037 26 180 1.6 8.0 0.00 0.18 0.18 82 1011.0
20260509163017 26 0.0 6.4 0.00 0.18 0.18 83 1011.0
20260509162037 26 0.0 3.2 0.00 0.18 0.18 82 1010.8
20260509161037 26 248 1.6 6.4 0.00 0.18 0.18 85 1010.8
20260509160017 25 0.0 3.2 0.00 0.18 0.18 88 1010.7
20260509155037 25 0.0 8.0 0.00 0.18 0.18 89 1010.6
20260509154017 25 203 1.6 8.0 0.00 0.18 0.18 92 1010.5
20260509153017 24 248 1.6 6.4 0.00 0.18 0.18 94 1010.8
20260509152017 23 0.0 3.2 0.00 0.18 0.18 95 1010.5
20260509151017 23 0.0 4.8 0.00 0.18 0.18 95 1010.8
20260509150017 23 0.0 3.2 0.00 0.18 0.18 95 1010.7
20260509145017 23 0.0 6.4 0.00 0.18 0.18 95 1010.7
20260509144037 23 180 1.6 8.0 0.00 0.18 0.18 95 1010.3
20260509143017 22 0.0 4.8 0.00 0.18 0.18 95 1010.3
20260509142037 22 0.0 3.2 0.00 0.18 0.18 95 1010.1
20260509141017 22 0.0 0.0 0.00 0.18 0.18 95 1010.1
20260509140017 22 0.0 0.0 0.00 0.18 0.18 95 1010.4
20260509135017 22 0.0 0.0 0.00 0.18 0.18 95 1010.6
20260509134017 22 0.0 0.0 0.00 0.18 0.18 95 1010.5
20260509133017 22 0.0 0.0 0.00 0.18 0.18 95 1010.6
20260509132017 22 0.0 0.0 0.00 0.18 0.18 95 1010.7
20260509131017 22 0.0 0.0 0.00 0.18 0.18 95 1010.6
20260509130017 22 0.0 0.0 0.00 0.18 0.18 95 1010.2
20260509125017 22 0.0 0.0 0.00 0.18 0.18 95 1009.9
20260509124017 22 0.0 0.0 0.00 0.18 0.18 95 1009.9
20260509123017 22 0.0 0.0 0.00 0.18 0.18 95 1010.0
20260509122017 22 0.0 0.0 0.00 0.18 0.18 95 1010.3
20260509121017 22 0.0 0.0 0.05 0.18 0.18 95 1010.3
20260509120037 22 0.0 0.0 0.10 0.18 0.18 95 1010.3
20260509115017 22 0.0 0.0 0.13 0.18 0.18 95 1010.3
20260509114016 22 0.0 0.0 0.13 0.18 0.18 95 1010.5
20260509113037 22 0.0 0.0 0.13 0.18 0.18 94 1010.5
20260509112017 22 0.0 0.0 0.13 0.18 0.18 94 1010.8
20260509111017 22 0.0 3.2 0.08 0.13 0.13 94 1010.9
20260509110037 22 0.0 0.0 0.03 0.08 0.08 94 1011.2
20260509105016 22 0.0 0.0 0.00 0.05 0.05 94 1011.2
20260509104016 22 0.0 0.0 0.00 0.05 0.05 94 1011.0
20260509103017 22 0.0 0.0 0.00 0.05 0.05 94 1011.0
20260509102016 22 0.0 0.0 0.00 0.05 0.05 94 1010.8
20260509101016 22 0.0 0.0 0.00 0.05 0.05 94 1010.3
20260509100016 22 0.0 0.0 0.00 0.05 0.05 94 1010.2
20260509095017 22 0.0 0.0 0.03 0.05 0.05 94 1009.9
20260509094036 22 0.0 0.0 0.05 0.05 0.05 94 1010.1
20260509093016 22 0.0 0.0 0.05 0.05 0.05 94 1010.1
20260509092017 22 0.0 0.0 0.05 0.05 0.05 94 1010.0
20260509091016 22 0.0 0.0 0.05 0.05 0.05 93 1009.8
20260509090016 22 0.0 0.0 0.05 0.05 0.05 93 1009.9
20260509085016 22 0.0 0.0 0.03 0.03 0.03 93 1010.1
20260509084057 22 0.0 0.0 0.00 0.00 0.00 93 1010.1
20260509083016 22 0.0 0.0 0.00 0.00 0.00 93 1010.3
20260509082016 22 0.0 1.6 0.00 0.00 0.00 93 1010.4
20260509081016 22 0.0 0.0 0.00 0.00 0.00 93 1010.5
20260509080036 22 0.0 0.0 0.00 0.00 0.00 93 1010.2
20260509075016 22 0.0 0.0 0.00 0.00 0.00 93 1010.1
20260509074016 22 0.0 0.0 0.00 0.00 0.00 92 1010.1
20260509073016 22 0.0 0.0 0.00 0.00 0.00 92 1010.3
20260509072016 22 0.0 0.0 0.00 0.00 0.00 92 1010.4
20260509071016 22 0.0 0.0 0.00 0.00 0.00 92 1010.4
20260509070016 22 0.0 0.0 0.00 0.00 0.00 92 1010.5
20260509065016 22 0.0 4.8 0.00 0.00 0.00 92 1010.2
20260509064016 22 0.0 4.8 0.00 0.00 0.00 92 1010.1
20260509063016 22 0.0 4.8 0.00 0.00 0.00 92 1010.0
20260509062016 22 180 1.6 8.0 0.00 0.00 0.00 91 1010.2
20260509061016 22 0.0 6.4 0.00 0.00 0.00 91 1010.1
20260509060016 22 0.0 9.7 0.00 0.00 0.00 90 1009.9
20260509055016 22 158 1.6 11.3 0.00 0.00 0.00 90 1009.7
20260509054016 22 158 1.6 9.7 0.00 0.00 0.00 89 1010.0
20260509053016 22 180 1.6 11.3 0.00 0.00 0.00 89 1010.0
20260509052016 22 0.0 4.8 0.00 0.00 0.00 89 1009.8
20260509051016 22 0.0 1.6 0.00 0.00 0.00 89 1009.6
20260509050016 22 0.0 3.2 0.00 0.00 0.00 89 1009.7
20260509045037 23 0.0 3.2 0.00 0.00 0.00 88 1009.6
20260509044017 23 0.0 3.2 0.00 0.00 0.00 87 1009.5
20260509043017 23 0.0 3.2 0.00 0.00 0.00 87 1009.7
20260509042017 23 0.0 3.2 0.00 0.00 0.00 87 1009.8
20260509041017 23 0.0 4.8 0.00 0.00 0.00 87 1010.0
20260509040017 23 0.0 0.0 0.00 0.00 0.00 87 1010.0
20260509035037 23 0.0 0.0 0.00 0.00 0.00 86 1010.0
20260509034017 23 0.0 0.0 0.00 0.00 0.00 86 1009.9
20260509033017 23 0.0 0.0 0.00 0.00 0.00 86 1009.8
20260509032037 23 0.0 0.0 0.00 0.00 0.00 86 1009.6
20260509031017 23 0.0 0.0 0.00 0.00 0.00 86 1009.5
20260509030016 23 0.0 0.0 0.00 0.00 0.00 86 1009.4
20260509025016 23 0.0 0.0 0.00 0.00 0.00 85 1009.4
20260509024016 23 0.0 0.0 0.00 0.00 0.00 85 1009.4
20260509023017 23 0.0 0.0 0.00 0.00 0.00 84 1009.4